Preview of NWS' New Version of Forecast
This preview is not operational and should not be used for support decisions.

Regional Weather Roundup (RWR)

Issued by National Weather Service (NWS)

                            
000
ASUS46 KPQR 191810
RWROR 

OREGON REGIONAL WEATHER ROUNDUP
NATIONAL WEATHER SERVICE PORTLAND OR
1100 AM PDT MON AUG 19 2019

NOTE: "FAIR" INDICATES FEW OR NO CLOUDS BELOW 12,000 FEET WITH
NO SIGNIFICANT WEATHER AND/OR OBSTRUCTIONS TO VISIBILITY.

ORZ001>013-191900-
NORTHWEST OREGON

  
CITY           SKY/WX    TMP DP  RH WIND       PRES   REMARKS
ASTORIA        CLOUDY    65  58  78 N6        30.02R                  
6HR MIN TEMP:  57; 6HR MAX TEMP:  66; 6HR PCP:  0.03;                

TILLAMOOK      SUNNY     70  54  56 CALM      30.03S                  
NEWPORT        CLOUDY    66  59  77 NW9       30.04                   
FLORENCE       FAIR      64  54  68 NW6       30.01S                  
PORTLAND       PTSUNNY   69  54  58 NE5       30.02S                  
6HR MIN TEMP:  61; 6HR MAX TEMP:  69;                                

VANCOUVER WA   CLOUDY    67  54  63 VRB5      30.02R                  
6HR MIN TEMP:  60; 6HR MAX TEMP:  67;                                

SCAPPOOSE      CLOUDY    68  55  63 VRB5      30.01R                  
6HR MIN TEMP:  57; 6HR MAX TEMP:  69;                                

HILLSBORO      MOSUNNY   69  53  56 CALM      30.02S                  
6HR MIN TEMP:  58; 6HR MAX TEMP:  69;                                

AURORA         CLOUDY    69  54  58 NE3       30.03S                  
6HR MIN TEMP:  58; 6HR MAX TEMP:  69;                                

MCMINNVILLE    CLOUDY    68  54  60 CALM      30.02S                  
6HR MIN TEMP:  54; 6HR MAX TEMP:  69;                                

SALEM          CLOUDY    68  54  60 NE8       30.01S                  
6HR MIN TEMP:  55; 6HR MAX TEMP:  68;                                

CORVALLIS      CLOUDY    65  56  72 CALM      30.03S                  
EUGENE         CLOUDY    66  54  65 N6        30.02S                  
6HR MIN TEMP:  55; 6HR MAX TEMP:  66;                                

CRESWELL       CLOUDY    63  55  77 NE5       30.01F                  
$$

ORZ021-028-191900-
SOUTHWEST OREGON

  
CITY           SKY/WX    TMP DP  RH WIND       PRES   REMARKS
NORTH BEND     PTSUNNY   68  58  70 N7        30.02S                  
6HR MIN TEMP:  60; 6HR MAX TEMP:  69;                                

BROOKINGS      CLOUDY    57  53  86 SW3       30.00F FOG              
ROSEBURG       CLOUDY    65  53  65 CALM      30.01S                  
6HR MIN TEMP:  59; 6HR MAX TEMP:  65;                                

SEXTON SUMMIT  SUNNY     68  53  58 VRB3      30.05R                  
6HR MIN TEMP:  54; 6HR MAX TEMP:  68;                                

GRANTS PASS    FAIR      73  54  49 CALM      29.99F                  
MEDFORD        SUNNY     75  53  46 W6        29.95S                  
6HR MIN TEMP:  60; 6HR MAX TEMP:  75;                                

$$

ORZ014>016-041-191900-
COLUMBIA GORGE

  
CITY           SKY/WX    TMP DP  RH WIND       PRES   REMARKS
TROUTDALE      PTSUNNY   67  55  65 CALM      30.02S                  
6HR MIN TEMP:  61; 6HR MAX TEMP:  68;                                

HOOD RIVER     SUNNY     70  54  56 W14G21    29.95R                  
THE DALLES     SUNNY     77  54  44 NW16      29.91S                  
6HR MIN TEMP:  62; 6HR MAX TEMP:  77;                                

$$

ORZ029>031-041-044-049-050-061>064-502-503-505>511-191900-
EASTERN OREGON

  
CITY           SKY/WX    TMP DP  RH WIND       PRES   REMARKS
MADRAS         SUNNY     73  43  33 W5        30.00F                  
REDMOND        SUNNY     78  39  24 NE5       30.00F                  
6HR MIN TEMP:  48; 6HR MAX TEMP:  78;                                

BEND           SUNNY     77  43  29 VRB5      30.01F                  
PRINEVILLE     SUNNY     73  45  35 CALM      30.01S                  
KLAMATH FALLS  SUNNY     73  37  27 VRB5      30.06S                  
6HR MIN TEMP:  48; 6HR MAX TEMP:  74;                                

LAKEVIEW       SUNNY     71  39  31 VRB6      30.11S                  
HERMISTON      SUNNY     80  52  37 SW12      29.89F                  
6HR MIN TEMP:  66; 6HR MAX TEMP:  80;                                

PENDLETON      SUNNY     81  44  27 W14       29.92S                  
6HR MIN TEMP:  55; 6HR MAX TEMP:  81;                                

JOHN DAY       SUNNY     75  40  29 NW6       30.04S                  
MEACHAM        SUNNY     73  41  31 VRB5      30.03S                  
6HR MIN TEMP:  41; 6HR MAX TEMP:  74;                                

LA GRANDE      SUNNY     79  44  28 NW14      29.97F                  
6HR MIN TEMP:  50; 6HR MAX TEMP:  79;                                

BAKER CITY     SUNNY     80  43  26 N6        30.00S                  
6HR MIN TEMP:  47; 6HR MAX TEMP:  80;                                

BURNS          SUNNY     79  44  28 MISG      30.05S                  
6HR MIN TEMP:  46; 6HR MAX TEMP:  79;                                

ROME             N/A     85  34  16 VRB3      30.01F                  
6HR MIN TEMP:  60; 6HR MAX TEMP:  86;                                

ONTARIO        SUNNY     87  46  24 SE3       29.92S                  
6HR MIN TEMP:  58; 6HR MAX TEMP:  87;                                

$$